Lapeer, MI

6:22 AM EST on January 23, 2017 (GMT -0500)
Lapeer

Weather History for KD95 - September, 2013

Change the Weather History Date:

Tuesday, September 10, 2013

  Actual Average (KFNT) Record (KFNT)
Temperature  
Mean Temperature 82 °F -  
Max Temperature 94 °F 74 °F 96 °F (2013)
Min Temperature 70 °F 52 °F 36 °F (1969)
Cooling Degree Days 17    
Growing Degree Days 32 (Base 50)    
Moisture  
Dew Point 66 °F    
Average Humidity 62    
Maximum Humidity 88    
Minimum Humidity 33    
Precipitation  
Precipitation 0.00 in - - ()
Sea Level Pressure  
Sea Level Pressure 29.95 in    
Wind  
Wind Speed 8 mph (SW)    
Max Wind Speed 21 mph    
Max Gust Speed 28 mph    
Visibility 10 miles    
Events      
Averages and records for this station are not official NWS values.
T = Trace of Precipitation, MM = Missing Value Source: NWS Daily Summary

Daily Weather History Graph

Daily Weather History Graph

Search for Another Location

Airport or City:

Trip Planner

Search our weather history database for the weather conditions in past years. The results will help you decide how hot, cold, wet, or windy it might be!

Date:

Astronomy

Sep. 10, 2013 Rise Set
Actual Time 7:07 AM EDT 7:51 PM EDT
Civil Twilight 6:38 AM EDT 8:20 PM EDT
Nautical Twilight 6:04 AM EDT 8:54 PM EDT
Astronomical Twilight 5:29 AM EDT 9:29 PM EDT
Moon 12:41 PM EDT (9/10) 10:44 PM EDT (9/10)
Length of Visible Light 13h 41m
Length of Day
12h 44m
Waxing Crescent, 28% of the Moon is Illuminated
Sep 10
Waxing Crescent
Sep 12
First Quarter
Sep 19
Full
Sep 26
Last Quarter
Oct 4
New

Hourly Weather History & Observations

Time (EDT) Temp. Heat Index Dew Point Humidity Pressure Visibility Wind Dir Wind Speed Gust Speed Precip Events Conditions
12:14 AM 71.6 °F - 67.1 °F 86% 29.89 in 10.0 mi South 6.9 mph - N/A   Clear
12:34 AM 71.4 °F - 67.1 °F 86% 29.89 in 10.0 mi South 8.1 mph - N/A   Clear
12:53 AM 70.9 °F - 67.1 °F 88% 29.89 in 7.0 mi SSW 6.9 mph - N/A   Clear
1:14 AM 71.6 °F - 67.3 °F 86% 29.88 in 10.0 mi SSW 6.9 mph - N/A   Clear
1:34 AM 72.1 °F - 67.5 °F 85% 29.87 in 10.0 mi SSW 5.8 mph - N/A   Clear
1:53 AM 73.2 °F - 67.8 °F 83% 29.87 in 10.0 mi SSW 6.9 mph - N/A   Clear
2:14 AM 73.6 °F - 68.0 °F 83% 29.88 in 10.0 mi SW 6.9 mph - N/A   Clear
2:33 AM 75.2 °F - 68.7 °F 80% 29.88 in 10.0 mi SW 10.4 mph - N/A   Clear
2:53 AM 75.2 °F - 68.9 °F 81% 29.88 in 10.0 mi SW 8.1 mph - N/A   Clear
3:14 AM 75.2 °F - 68.9 °F 81% 29.89 in 10.0 mi WSW 9.2 mph - N/A   Clear
3:33 AM 75.6 °F - 69.1 °F 80% 29.90 in 10.0 mi WSW 6.9 mph - N/A   Clear
3:53 AM 75.6 °F - 69.3 °F 81% 29.90 in 10.0 mi WSW 6.9 mph - N/A   Clear
4:14 AM 75.0 °F - 69.3 °F 82% 29.90 in 10.0 mi Calm Calm - N/A   Clear
4:33 AM 74.7 °F - 69.3 °F 83% 29.91 in 10.0 mi West 3.5 mph - N/A   Clear
4:53 AM 74.8 °F - 69.6 °F 84% 29.91 in 10.0 mi SW 4.6 mph - N/A   Clear
5:14 AM 75.2 °F - 69.8 °F 83% 29.91 in 10.0 mi SW 4.6 mph - N/A   Clear
5:33 AM 75.2 °F - 69.6 °F 83% 29.92 in 10.0 mi WSW 5.8 mph - N/A   Clear
5:53 AM 76.6 °F - 69.4 °F 78% 29.92 in 10.0 mi WSW 6.9 mph - N/A   Clear
6:14 AM 76.5 °F - 69.8 °F 80% 29.92 in 10.0 mi West 4.6 mph - N/A   Scattered Clouds
6:33 AM 76.3 °F - 69.6 °F 80% 29.92 in 10.0 mi WSW 8.1 mph - N/A   Clear
6:54 AM 76.5 °F - 69.4 °F 79% 29.93 in 10.0 mi WSW 8.1 mph - N/A   Clear
7:14 AM 76.5 °F - 69.3 °F 78% 29.93 in 10.0 mi WSW 8.1 mph - N/A   Clear
7:33 AM 76.6 °F - 69.3 °F 78% 29.93 in 10.0 mi WSW 6.9 mph - N/A   Clear
7:53 AM 77.0 °F - 69.1 °F 76% 29.94 in 10.0 mi WSW 9.2 mph - N/A   Clear
8:14 AM 76.6 °F - 69.1 °F 77% 29.94 in 10.0 mi WSW 9.2 mph - N/A   Clear
8:33 AM 76.8 °F - 69.1 °F 77% 29.94 in 10.0 mi North - - N/A   Clear
8:53 AM 77.4 °F - 69.1 °F 76% 29.94 in 10.0 mi WSW 8.1 mph - N/A   Clear
9:14 AM 78.6 °F - 68.9 °F 72% 29.95 in 10.0 mi WSW 8.1 mph - N/A   Clear
9:33 AM 81.0 °F 84.1 °F 68.9 °F 67% 29.95 in 10.0 mi WSW 10.4 mph 16.1 mph N/A   Clear
9:54 AM 82.4 °F 85.8 °F 68.9 °F 64% 29.95 in 10.0 mi WSW 10.4 mph 16.1 mph N/A   Clear
10:14 AM 83.1 °F 86.6 °F 68.7 °F 62% 29.96 in 10.0 mi WSW 8.1 mph - N/A   Clear
10:33 AM 84.7 °F 88.5 °F 68.9 °F 59% 29.97 in 10.0 mi West 9.2 mph - N/A   Clear
10:54 AM 85.8 °F 89.4 °F 68.5 °F 56% 29.97 in 10.0 mi West 9.2 mph - N/A   Clear
11:14 AM 87.1 °F 90.2 °F 67.5 °F 52% 29.96 in 10.0 mi WSW 13.8 mph 17.3 mph N/A   Clear
11:33 AM 87.8 °F 90.7 °F 66.9 °F 50% 29.97 in 10.0 mi West 13.8 mph 21.9 mph N/A   Clear
11:54 AM 88.5 °F 91.6 °F 67.1 °F 49% 29.97 in 10.0 mi WSW 10.4 mph 18.4 mph N/A   Clear
12:14 PM 89.4 °F 92.3 °F 66.7 °F 47% 29.97 in 10.0 mi WSW 12.7 mph 19.6 mph N/A   Clear
12:33 PM 90.9 °F 94.4 °F 67.3 °F 46% 29.96 in 10.0 mi WSW 8.1 mph - N/A   Clear
12:54 PM 91.4 °F 94.5 °F 66.7 °F 44% 29.97 in 10.0 mi North - - N/A   Clear
1:13 PM 92.3 °F 96.1 °F 67.3 °F 44% 29.96 in 10.0 mi WSW 10.4 mph 19.6 mph N/A   Clear
1:33 PM 92.3 °F 95.1 °F 65.8 °F 42% 29.96 in 10.0 mi WSW 12.7 mph 20.7 mph N/A   Clear
1:54 PM 93.4 °F 96.1 °F 65.7 °F 40% 29.97 in 10.0 mi WSW 18.4 mph 21.9 mph N/A   Clear
2:13 PM 93.7 °F 95.8 °F 64.9 °F 38% 29.97 in 10.0 mi WSW 15.0 mph 25.3 mph N/A   Clear
2:33 PM 93.7 °F 96.2 °F 65.3 °F 39% 29.96 in 10.0 mi West 10.4 mph 21.9 mph N/A   Clear
2:54 PM 93.6 °F 95.5 °F 64.4 °F 38% 29.96 in 10.0 mi WSW 15.0 mph 21.9 mph N/A   Clear
3:13 PM 93.6 °F 95.0 °F 63.5 °F 37% 29.96 in 10.0 mi West 11.5 mph 21.9 mph N/A   Clear
3:33 PM 94.3 °F 95.8 °F 63.1 °F 36% 29.95 in 10.0 mi WSW 12.7 mph 20.7 mph N/A   Clear
3:54 PM 94.3 °F 94.9 °F 61.9 °F 34% 29.95 in 10.0 mi WSW 15.0 mph 21.9 mph N/A   Clear
4:13 PM 94.5 °F 94.8 °F 61.5 °F 33% 29.95 in 10.0 mi WSW 12.7 mph 26.5 mph N/A   Clear
4:33 PM 93.7 °F 93.7 °F 60.4 °F 33% 29.96 in 10.0 mi West 20.7 mph 27.6 mph N/A   Clear
4:54 PM 93.2 °F 93.3 °F 61.0 °F 34% 29.96 in 10.0 mi WSW 16.1 mph 24.2 mph N/A   Clear
5:13 PM 92.7 °F 92.5 °F 60.3 °F 34% 29.96 in 10.0 mi WSW 13.8 mph 25.3 mph N/A   Clear
5:33 PM 92.3 °F 92.0 °F 60.4 °F 34% 29.96 in 10.0 mi West 16.1 mph 21.9 mph N/A   Clear
5:54 PM 91.8 °F 91.5 °F 60.4 °F 35% 29.96 in 10.0 mi WSW 12.7 mph 23.0 mph N/A   Clear
6:13 PM 91.0 °F 90.9 °F 60.8 °F 36% 29.97 in 10.0 mi WSW 11.5 mph 18.4 mph N/A   Clear
6:33 PM 89.8 °F 89.4 °F 60.3 °F 37% 29.97 in 10.0 mi WSW 10.4 mph 17.3 mph N/A   Clear
6:54 PM 88.7 °F 88.6 °F 60.8 °F 39% 29.98 in 10.0 mi WSW 10.4 mph - N/A   Clear
7:13 PM 87.4 °F 87.4 °F 61.3 °F 41% 29.98 in 10.0 mi WSW 8.1 mph 17.3 mph N/A   Clear
7:33 PM 86.0 °F 86.3 °F 61.7 °F 44% 29.97 in 10.0 mi SW 8.1 mph - N/A   Clear
7:54 PM 83.8 °F 84.7 °F 62.8 °F 49% 29.98 in 10.0 mi SW 6.9 mph - N/A   Clear
8:13 PM 81.7 °F 83.0 °F 63.5 °F 54% 29.98 in 10.0 mi SSW 4.6 mph - N/A   Clear
8:33 PM 79.9 °F - 64.2 °F 59% 29.99 in 10.0 mi SSW 5.8 mph - N/A   Clear
8:54 PM 79.3 °F - 64.8 °F 61% 30.00 in 10.0 mi SW 5.8 mph - N/A   Clear
9:13 PM 79.2 °F - 64.8 °F 61% 30.01 in 10.0 mi SW 5.8 mph - N/A   Clear
9:33 PM 78.3 °F - 64.9 °F 63% 30.01 in 10.0 mi SW 5.8 mph - N/A   Clear
9:53 PM 78.4 °F - 64.8 °F 63% 30.02 in 10.0 mi SW 4.6 mph - N/A   Clear
10:13 PM 77.0 °F - 64.9 °F 66% 30.01 in 10.0 mi SSW 4.6 mph - N/A   Clear
10:34 PM 75.6 °F - 64.9 °F 69% 30.01 in 10.0 mi SSW 4.6 mph - N/A   Clear
10:53 PM 74.7 °F - 64.9 °F 72% 30.01 in 10.0 mi SSW 4.6 mph - N/A   Clear
11:13 PM 73.9 °F - 64.9 °F 73% 30.00 in 10.0 mi SSW 4.6 mph - N/A   Clear
11:34 PM 74.5 °F - 64.9 °F 72% 30.00 in 10.0 mi SSW 5.8 mph - N/A   Clear
11:53 PM 75.2 °F - 64.8 °F 70% 30.01 in 10.0 mi SW 6.9 mph - N/A   Clear